Date String (YYYY-MM-DD hh:mm:ss) UTC,Instrument flags,absolute air pressure of the measurement (hPa),sample flow rate (lpm),inlet stack bypass flow (lpm),air temperature of the measurement (°C),ambient temperature measured by the external sensor (°C),aerosol sample conditioner tube jacket temperature (°C),OPC LED temperature (°C),internal box temperature (°C),relative humidity of the measurement (%),span deviation,mass concentration of particles derived from Lorenz-Mie calculation of OPC scattering (μg/m³),mass concentration of particles derived from Lorenz-Mie calculation of OPC scattering (μg/m³),mass concentration of particles derived from Lorenz-Mie calculation of OPC scattering (μg/m³)
DateTimeUTC,F1_M11,P_M11,Q1_M11,Q2_M11,T1_M11,T2_M11,T3_M11,T4_M11,T5_M11,U1_M11,ZSPAN_M11,X0_M11,X2_M11,X1_M11
2023-07-16 08:00:00,SystemResetWarning,0833.9,4.99,000.00,029.4,027.8,000.0,037.9,031.0,28.7,-000.8,0015.28,0005.82,0005.30
2023-07-16 08:01:00,SystemResetWarning,0834.0,4.99,000.00,029.4,027.9,000.0,037.9,031.0,27.4,-000.8,0014.54,0006.02,0005.45
2023-07-16 08:02:00,SystemResetWarning,0833.9,5.00,000.00,029.4,028.0,000.0,037.9,031.0,27.0,-000.4,0015.08,0006.24,0005.62
2023-07-16 08:03:00,SystemResetWarning,0833.9,5.01,000.00,029.4,028.1,000.0,037.9,031.1,28.1,-000.2,0015.30,0006.43,0005.76
2023-07-16 08:04:00,SystemResetWarning,0833.9,5.00,000.00,029.5,028.2,000.0,037.9,031.1,28.0,-000.1,0016.14,0006.65,0005.91
2023-07-16 08:05:00,SystemResetWarning,0833.9,4.99,000.00,029.5,028.3,000.0,037.9,031.1,28.1,-000.4,0016.06,0006.76,0005.99
2023-07-16 08:06:00,SystemResetWarning,0833.9,5.00,000.00,029.5,028.3,000.0,038.0,031.2,28.0,-000.0,0015.92,0006.77,0005.99
2023-07-16 08:07:00,SystemResetWarning,0833.9,5.00,000.00,029.6,028.4,000.0,038.0,031.2,27.8,-000.2,0015.75,0006.80,0006.00
2023-07-16 08:08:00,SystemResetWarning,0833.9,5.00,000.00,029.6,028.5,000.0,038.0,031.2,27.4,-000.8,0015.90,0006.86,0006.05
2023-07-16 08:09:00,SystemResetWarning,0834.0,5.00,000.00,029.6,028.5,000.0,038.0,031.3,26.6,-001.1,0015.62,0006.93,0006.10
2023-07-16 08:10:00,SystemResetWarning,0834.0,5.01,000.00,029.7,028.6,000.0,038.1,031.3,26.5,-001.1,0015.04,0007.02,0006.19
2023-07-16 08:11:00,SystemResetWarning,0834.0,5.00,000.00,029.7,028.6,000.0,038.1,031.3,26.8,-000.6,0015.53,0007.12,0006.26
2023-07-16 08:12:00,SystemResetWarning,0834.0,5.00,000.00,029.7,028.6,000.0,038.1,031.4,26.2,0000.0,0015.08,0007.09,0006.24
2023-07-16 08:13:00,SystemResetWarning,0833.9,5.01,000.00,029.7,028.7,000.0,038.1,031.4,25.5,0000.0,0014.27,0007.03,0006.22
2023-07-16 08:14:00,SystemResetWarning,0834.0,5.00,000.00,029.8,028.7,000.0,038.2,031.4,25.0,0000.0,0013.90,0007.03,0006.24
2023-07-16 08:15:00,SystemResetWarning,0834.0,5.00,000.00,029.8,028.6,000.0,038.2,031.4,25.1,0000.0,0013.53,0007.06,0006.24
2023-07-16 08:16:00,SystemResetWarning,0833.9,4.98,000.00,029.8,027.0,000.0,038.1,031.2,25.7,0000.0,0014.05,0007.07,0006.25
2023-07-16 08:17:00,SystemResetWarning,0833.8,5.00,000.00,029.7,025.5,000.0,038.0,031.1,28.1,-000.9,0014.66,0007.16,0006.29
2023-07-16 08:18:00,SystemResetWarning,0833.8,5.01,000.00,029.6,025.3,000.0,037.9,030.8,29.1,-000.8,0014.69,0007.19,0006.32
2023-07-16 08:19:00,SystemResetWarning,0833.8,5.01,000.00,029.5,025.6,000.0,038.0,030.7,30.2,0000.1,0014.76,0007.23,0006.32
2023-07-16 08:20:00,SystemResetWarning,0833.9,5.00,000.00,029.5,026.0,000.0,038.0,030.7,30.3,0000.7,0015.21,0007.28,0006.32
2023-07-16 08:21:00,SystemResetWarning,0833.8,5.00,000.00,029.4,026.4,000.0,038.0,030.8,30.1,0000.7,0015.69,0007.28,0006.30
2023-07-16 08:22:00,SystemResetWarning,0833.9,5.00,000.00,029.4,026.8,000.0,038.0,030.9,29.4,0000.4,0015.14,0007.30,0006.27
2023-07-16 08:23:00,SystemResetWarning,0833.9,5.01,000.00,029.4,027.1,000.0,038.0,030.9,27.9,0000.9,0015.53,0007.35,0006.26
2023-07-16 08:24:00,SystemResetWarning,0833.9,5.00,000.00,029.4,027.4,000.0,038.0,031.0,25.3,0001.1,0015.62,0007.37,0006.24
2023-07-16 08:25:00,SystemResetWarning,0834.0,5.00,000.00,029.5,027.6,000.0,038.0,031.0,25.9,0001.1,0015.94,0007.34,0006.19
2023-07-16 08:26:00,SystemResetWarning,0834.0,5.00,000.00,029.5,027.8,000.0,038.0,031.0,25.9,0001.2,0015.82,0007.23,0006.14
2023-07-16 08:27:00,SystemResetWarning,0833.9,5.01,000.00,029.5,027.9,000.0,038.0,031.1,25.6,0001.0,0015.21,0007.20,0006.14
2023-07-16 08:28:00,SystemResetWarning,0833.9,5.00,000.00,029.5,028.0,000.0,038.0,031.1,24.5,0001.1,0014.65,0007.22,0006.16
2023-07-16 08:29:00,SystemResetWarning,0833.9,4.99,000.00,029.5,028.1,000.0,038.0,031.2,24.3,0001.0,0015.01,0007.31,0006.22
2023-07-16 08:30:00,SystemResetWarning,0833.9,5.00,000.00,029.6,028.2,000.0,038.0,031.2,24.4,0001.2,0015.31,0007.33,0006.27
2023-07-16 08:31:00,SystemResetWarning,0833.9,5.00,000.00,029.6,028.3,000.0,038.1,031.2,24.6,0001.1,0015.02,0007.33,0006.32
2023-07-16 08:32:00,SystemResetWarning,0833.9,5.00,000.00,029.6,028.4,000.0,038.1,031.2,24.8,0002.0,0015.16,0007.38,0006.37
2023-07-16 08:33:00,SystemResetWarning,0833.9,5.00,000.00,029.6,028.4,000.0,038.1,031.3,24.6,0002.1,0015.58,0007.36,0006.37
2023-07-16 08:34:00,SystemResetWarning,0833.9,5.01,000.00,029.7,028.5,000.0,038.1,031.3,24.8,0001.9,0014.93,0007.31,0006.36
2023-07-16 08:35:00,SystemResetWarning,0833.9,5.00,000.00,029.7,028.5,000.0,038.1,031.3,24.8,0002.1,0015.24,0007.31,0006.36
2023-07-16 08:36:00,SystemResetWarning,0834.0,5.00,000.00,029.7,028.6,000.0,038.1,031.3,24.9,0002.3,0014.81,0007.28,0006.35
2023-07-16 08:37:00,SystemResetWarning,0834.0,5.01,000.00,029.7,028.6,000.0,038.2,031.4,25.0,0001.9,0014.48,0007.32,0006.35
2023-07-16 08:38:00,SystemResetWarning,0833.9,5.01,000.00,029.8,028.6,000.0,038.2,031.4,26.6,0002.2,0014.96,0007.28,0006.30
2023-07-16 08:39:00,SystemResetWarning,0833.9,5.00,000.00,029.8,028.7,000.0,038.2,031.4,27.6,0002.3,0015.01,0007.17,0006.22
2023-07-16 08:40:00,SystemResetWarning,0834.0,5.00,000.00,029.8,028.6,000.0,038.2,031.4,26.7,0002.4,0015.06,0007.04,0006.08
2023-07-16 08:41:00,SystemResetWarning,0833.9,4.98,000.00,029.8,027.1,000.0,038.1,031.3,27.5,0001.9,0014.77,0006.92,0005.97
2023-07-16 08:42:00,SystemResetWarning,0833.9,5.01,000.00,029.7,025.5,000.0,038.0,031.0,28.1,0002.1,0015.12,0006.84,0005.88
2023-07-16 08:43:00,SystemResetWarning,0833.8,5.01,000.00,029.6,025.1,000.0,037.9,030.7,28.9,0000.9,0015.20,0006.72,0005.77
2023-07-16 08:44:00,SystemResetWarning,0833.8,5.00,000.00,029.5,025.4,000.0,038.0,030.6,29.4,0001.2,0014.70,0006.66,0005.72
2023-07-16 08:45:00,SystemResetWarning,0833.8,5.00,000.00,029.4,025.8,000.0,038.0,030.6,29.5,0000.9,0014.49,0006.63,0005.70
2023-07-16 08:46:00,SystemResetWarning,0833.8,5.00,000.00,029.4,026.3,000.0,038.0,030.7,29.1,-000.0,0014.16,0006.61,0005.70
2023-07-16 08:47:00,SystemResetWarning,0833.8,5.01,000.00,029.4,026.7,000.0,038.0,030.8,28.9,-000.0,0013.76,0006.57,0005.68
2023-07-16 08:48:00,SystemResetWarning,0833.8,5.00,000.00,029.4,027.0,000.0,038.0,030.8,27.0,0000.0,0013.57,0006.53,0005.67
2023-07-16 08:49:00,SystemResetWarning,0833.8,4.99,000.00,029.4,027.3,000.0,038.0,030.9,25.5,0000.0,0013.52,0006.58,0005.73
2023-07-16 08:50:00,SystemResetWarning,0833.8,5.00,000.00,029.4,027.5,000.0,038.0,030.9,25.6,0000.0,0013.26,0006.68,0005.78
2023-07-16 08:51:00,SystemResetWarning,0833.8,5.00,000.00,029.4,027.7,000.0,038.0,031.0,24.8,0000.0,0014.17,0006.76,0005.86
2023-07-16 08:52:00,SystemResetWarning,0833.8,5.00,000.00,029.4,027.8,000.0,038.0,031.0,24.7,0000.0,0013.89,0006.83,0005.95
2023-07-16 08:53:00,SystemResetWarning,0833.8,5.00,000.00,029.5,028.0,000.0,038.0,031.1,25.2,-000.6,0013.50,0006.91,0006.05
2023-07-16 08:54:00,SystemResetWarning,0833.9,5.00,000.00,029.5,028.1,000.0,038.0,031.1,25.3,-001.0,0012.72,0006.99,0006.17
2023-07-16 08:55:00,SystemResetWarning,0833.8,5.00,000.00,029.5,028.1,000.0,038.0,031.1,25.8,-001.2,0012.52,0007.05,0006.27
2023-07-16 08:56:00,SystemResetWarning,0833.7,5.00,000.00,029.5,028.2,000.0,038.0,031.2,24.5,-001.4,0012.66,0007.15,0006.38
2023-07-16 08:57:00,SystemResetWarning,0833.8,5.00,000.00,029.6,028.3,000.0,038.0,031.2,23.7,-000.7,0012.90,0007.25,0006.48
2023-07-16 08:58:00,SystemResetWarning,0833.8,5.00,000.00,029.6,028.4,000.0,038.1,031.2,23.5,-000.6,0014.03,0007.35,0006.55
2023-07-16 08:59:00,SystemResetWarning,0833.8,5.00,000.00,029.6,028.4,000.0,038.1,031.3,23.2,-000.5,0014.39,0007.41,0006.58
